Time,TemperatureF,DewpointF,PressureIn,WindDirection,WindDirectionDegrees,WindSpeedMPH,WindSpeedGustMPH,Humidity,HourlyPrecipIn,Conditions,Clouds,dailyrainin,SoftwareType,DateUTC
2013-10-14 00:04:00,50.5,43.0,30.35,NE,46,0.0,0.0,74,0.00,,,0.00,weatherlink.com 1.10,2013-10-14 04:04:00,
2013-10-14 00:19:00,48.6,42.0,30.35,East,98,0.0,0.0,78,0.00,,,0.00,weatherlink.com 1.10,2013-10-14 04:19:00,
2013-10-14 00:34:00,47.6,43.0,30.35,East,98,0.0,0.0,83,0.00,,,0.00,weatherlink.com 1.10,2013-10-14 04:34:00,
2013-10-14 00:50:00,44.9,41.0,30.34,East,98,0.0,0.0,86,0.00,,,0.00,weatherlink.com 1.10,2013-10-14 04:50:00,
2013-10-14 01:05:00,46.3,43.0,30.35,East,98,0.0,0.0,87,0.00,,,0.00,weatherlink.com 1.10,2013-10-14 05:05:00,
2013-10-14 01:20:00,45.1,41.0,30.35,East,88,0.0,0.0,86,0.00,,,0.00,weatherlink.com 1.10,2013-10-14 05:20:00,
2013-10-14 01:35:00,44.8,41.0,30.36,NE,46,0.0,0.0,86,0.00,,,0.00,weatherlink.com 1.10,2013-10-14 05:35:00,
2013-10-14 01:50:00,44.9,40.0,30.36,NE,46,0.0,0.0,84,0.00,,,0.00,weatherlink.com 1.10,2013-10-14 05:50:00,
2013-10-14 02:05:00,45.3,42.0,30.36,NE,46,0.0,0.0,89,0.00,,,0.00,weatherlink.com 1.10,2013-10-14 06:05:00,
2013-10-14 02:20:00,46.9,42.0,30.37,North,355,0.0,0.0,82,0.00,,,0.00,weatherlink.com 1.10,2013-10-14 06:20:00,
2013-10-14 02:35:00,47.8,41.0,30.37,NNE,13,0.0,0.0,78,0.00,,,0.00,weatherlink.com 1.10,2013-10-14 06:35:00,
2013-10-14 02:50:00,49.4,42.0,30.37,NE,36,0.0,0.0,76,0.00,,,0.00,weatherlink.com 1.10,2013-10-14 06:50:00,
2013-10-14 03:05:00,50.1,42.0,30.37,North,355,0.0,0.0,74,0.00,,,0.00,weatherlink.com 1.10,2013-10-14 07:05:00,
2013-10-14 03:20:00,44.7,40.0,30.37,ESE,107,0.0,0.0,84,0.00,,,0.00,weatherlink.com 1.10,2013-10-14 07:20:00,
2013-10-14 03:35:00,43.9,41.0,30.37,ESE,107,0.0,0.0,88,0.00,,,0.00,weatherlink.com 1.10,2013-10-14 07:35:00,
2013-10-14 03:50:00,42.0,39.0,30.37,ESE,107,0.0,0.0,90,0.00,,,0.00,weatherlink.com 1.10,2013-10-14 07:50:00,
2013-10-14 04:05:00,42.9,41.0,30.37,ESE,107,0.0,0.0,91,0.00,,,0.00,weatherlink.com 1.10,2013-10-14 08:05:00,
2013-10-14 04:20:00,43.2,41.0,30.37,ESE,107,0.0,0.0,91,0.00,,,0.00,weatherlink.com 1.10,2013-10-14 08:20:00,
2013-10-14 04:35:00,42.6,41.0,30.37,ESE,107,0.0,0.0,93,0.00,,,0.00,weatherlink.com 1.10,2013-10-14 08:35:00,
2013-10-14 04:50:00,42.1,40.0,30.38,ESE,107,0.0,0.0,93,0.00,,,0.00,weatherlink.com 1.10,2013-10-14 08:50:00,
2013-10-14 05:05:00,42.4,41.0,30.38,ESE,107,0.0,0.0,94,0.00,,,0.00,weatherlink.com 1.10,2013-10-14 09:05:00,
2013-10-14 05:20:00,41.6,40.0,30.39,ESE,107,0.0,0.0,94,0.00,,,0.00,weatherlink.com 1.10,2013-10-14 09:20:00,
2013-10-14 05:35:00,40.7,39.0,30.39,ESE,107,0.0,0.0,94,0.00,,,0.00,weatherlink.com 1.10,2013-10-14 09:35:00,
2013-10-14 05:50:00,41.4,40.0,30.39,ESE,107,0.0,0.0,95,0.00,,,0.00,weatherlink.com 1.10,2013-10-14 09:50:00,
2013-10-14 06:05:00,42.3,41.0,30.39,ESE,107,0.0,0.0,95,0.00,,,0.00,weatherlink.com 1.10,2013-10-14 10:05:00,
2013-10-14 06:20:00,40.3,39.0,30.39,ESE,107,0.0,0.0,94,0.00,,,0.00,weatherlink.com 1.10,2013-10-14 10:20:00,
2013-10-14 06:35:00,40.0,39.0,30.39,ESE,107,0.0,0.0,95,0.00,,,0.00,weatherlink.com 1.10,2013-10-14 10:35:00,
2013-10-14 06:50:00,40.2,39.0,30.40,ESE,107,0.0,0.0,96,0.00,,,0.00,weatherlink.com 1.10,2013-10-14 10:50:00,
2013-10-14 07:05:00,40.4,39.0,30.39,ESE,107,0.0,0.0,95,0.00,,,0.00,weatherlink.com 1.10,2013-10-14 11:05:00,
2013-10-14 07:20:00,40.0,39.0,30.39,ESE,107,0.0,0.0,95,0.00,,,0.00,weatherlink.com 1.10,2013-10-14 11:20:00,
2013-10-14 07:35:00,40.7,39.0,30.39,ESE,107,0.0,0.0,95,0.00,,,0.00,weatherlink.com 1.10,2013-10-14 11:35:00,
2013-10-14 07:50:00,40.5,39.0,30.39,ESE,107,0.0,0.0,94,0.00,,,0.00,weatherlink.com 1.10,2013-10-14 11:50:00,
2013-10-14 08:05:00,39.7,38.0,30.39,ESE,107,0.0,0.0,93,0.00,,,0.00,weatherlink.com 1.10,2013-10-14 12:05:00,
2013-10-14 08:20:00,39.0,38.0,30.39,ESE,107,0.0,0.0,95,0.00,,,0.00,weatherlink.com 1.10,2013-10-14 12:20:00,
2013-10-14 08:35:00,39.6,39.0,30.40,ESE,107,0.0,0.0,96,0.00,,,0.00,weatherlink.com 1.10,2013-10-14 12:35:00,
2013-10-14 08:50:00,41.2,40.0,30.39,ESE,107,0.0,0.0,96,0.00,,,0.00,weatherlink.com 1.10,2013-10-14 12:50:00,
2013-10-14 09:05:00,43.1,42.0,30.39,ESE,107,0.0,0.0,95,0.00,,,0.00,weatherlink.com 1.10,2013-10-14 13:05:00,
2013-10-14 09:20:00,44.6,43.0,30.39,ESE,107,0.0,0.0,94,0.00,,,0.00,weatherlink.com 1.10,2013-10-14 13:20:00,
2013-10-14 09:35:00,45.5,44.0,30.40,ESE,107,0.0,0.0,93,0.00,,,0.00,weatherlink.com 1.10,2013-10-14 13:35:00,
2013-10-14 09:51:00,47.8,45.0,30.40,ESE,107,0.0,0.0,89,0.00,,,0.00,weatherlink.com 1.10,2013-10-14 13:51:00,
2013-10-14 10:06:00,49.4,46.0,30.40,ESE,107,0.0,0.0,88,0.00,,,0.00,weatherlink.com 1.10,2013-10-14 14:06:00,
2013-10-14 10:21:00,52.3,47.0,30.40,ESE,123,0.0,0.0,81,0.00,,,0.00,weatherlink.com 1.10,2013-10-14 14:21:00,
2013-10-14 10:36:00,52.4,43.0,30.39,ESE,123,0.0,0.0,71,0.00,,,0.00,weatherlink.com 1.10,2013-10-14 14:36:00,
2013-10-14 10:51:00,52.4,43.0,30.39,East,92,0.0,0.0,70,0.00,,,0.00,weatherlink.com 1.10,2013-10-14 14:51:00,
2013-10-14 11:06:00,53.3,43.0,30.39,ENE,69,0.0,0.0,68,0.00,,,0.00,weatherlink.com 1.10,2013-10-14 15:06:00,
2013-10-14 11:21:00,54.2,43.0,30.38,NE,54,0.0,0.0,65,0.00,,,0.00,weatherlink.com 1.10,2013-10-14 15:21:00,
2013-10-14 11:36:00,53.3,42.0,30.38,NNE,24,0.0,0.0,65,0.00,,,0.00,weatherlink.com 1.10,2013-10-14 15:36:00,
2013-10-14 11:51:00,54.8,44.0,30.38,NNE,25,0.0,0.0,66,0.00,,,0.00,weatherlink.com 1.10,2013-10-14 15:51:00,
2013-10-14 12:06:00,53.7,40.0,30.38,NE,46,0.0,0.0,60,0.00,,,0.00,weatherlink.com 1.10,2013-10-14 16:06:00,
2013-10-14 12:21:00,55.3,41.0,30.37,NE,38,0.0,0.0,59,0.00,,,0.00,weatherlink.com 1.10,2013-10-14 16:21:00,
2013-10-14 12:36:00,54.8,37.0,30.37,ESE,117,0.0,0.0,52,0.00,,,0.00,weatherlink.com 1.10,2013-10-14 16:36:00,
2013-10-14 12:51:00,55.2,39.0,30.37,ESE,103,0.0,0.0,55,0.00,,,0.00,weatherlink.com 1.10,2013-10-14 16:51:00,
2013-10-14 13:06:00,56.1,40.0,30.37,ENE,69,0.0,0.0,56,0.00,,,0.00,weatherlink.com 1.10,2013-10-14 17:06:00,
2013-10-14 13:21:00,54.5,40.0,30.37,ENE,74,0.0,0.0,58,0.00,,,0.00,weatherlink.com 1.10,2013-10-14 17:21:00,
2013-10-14 13:36:00,54.3,42.0,30.37,North,350,0.0,0.0,63,0.00,,,0.00,weatherlink.com 1.10,2013-10-14 17:36:00,
2013-10-14 13:51:00,54.6,43.0,30.37,North,9,0.0,0.0,64,0.00,,,0.00,weatherlink.com 1.10,2013-10-14 17:51:00,
2013-10-14 14:06:00,54.6,43.0,30.37,NNE,24,0.0,0.0,65,0.00,,,0.00,weatherlink.com 1.10,2013-10-14 18:06:00,
2013-10-14 14:21:00,55.4,43.0,30.36,NNW,348,0.0,0.0,64,0.00,,,0.00,weatherlink.com 1.10,2013-10-14 18:21:00,
2013-10-14 14:36:00,55.3,43.0,30.36,NNE,26,0.0,0.0,63,0.00,,,0.00,weatherlink.com 1.10,2013-10-14 18:36:00,
2013-10-14 14:51:00,55.0,43.0,30.36,North,355,0.0,0.0,65,0.00,,,0.00,weatherlink.com 1.10,2013-10-14 18:51:00,
2013-10-14 15:06:00,55.2,44.0,30.35,North,11,0.0,0.0,65,0.00,,,0.00,weatherlink.com 1.10,2013-10-14 19:06:00,
2013-10-14 15:21:00,55.1,44.0,30.34,North,5,0.0,0.0,66,0.00,,,0.00,weatherlink.com 1.10,2013-10-14 19:21:00,
2013-10-14 15:36:00,54.9,44.0,30.33,NNE,17,0.0,0.0,66,0.00,,,0.00,weatherlink.com 1.10,2013-10-14 19:36:00,
2013-10-14 15:51:00,54.8,44.0,30.32,North,360,0.0,0.0,67,0.00,,,0.00,weatherlink.com 1.10,2013-10-14 19:51:00,
2013-10-14 16:06:00,54.8,44.0,30.32,NNW,335,0.0,0.0,66,0.00,,,0.00,weatherlink.com 1.10,2013-10-14 20:06:00,
2013-10-14 16:21:00,54.7,44.0,30.31,NNE,28,0.0,0.0,67,0.00,,,0.00,weatherlink.com 1.10,2013-10-14 20:21:00,
2013-10-14 16:36:00,55.2,43.0,30.30,NNE,20,0.0,0.0,64,0.00,,,0.00,weatherlink.com 1.10,2013-10-14 20:36:00,
2013-10-14 16:51:00,55.0,42.0,30.30,NNE,16,0.0,0.0,63,0.00,,,0.00,weatherlink.com 1.10,2013-10-14 20:51:00,
2013-10-14 17:06:00,54.7,43.0,30.30,North,5,0.0,0.0,65,0.00,,,0.00,weatherlink.com 1.10,2013-10-14 21:06:00,
2013-10-14 17:21:00,54.4,42.0,30.30,NNE,26,0.0,0.0,64,0.00,,,0.00,weatherlink.com 1.10,2013-10-14 21:21:00,
2013-10-14 17:36:00,54.7,42.0,30.30,NE,39,0.0,0.0,63,0.00,,,0.00,weatherlink.com 1.10,2013-10-14 21:36:00,
2013-10-14 17:51:00,54.7,43.0,30.29,North,360,0.0,0.0,65,0.00,,,0.00,weatherlink.com 1.10,2013-10-14 21:51:00,
2013-10-14 18:06:00,54.8,44.0,30.29,NNE,17,0.0,0.0,66,0.00,,,0.00,weatherlink.com 1.10,2013-10-14 22:06:00,
2013-10-14 18:21:00,54.1,43.0,30.29,NNE,20,0.0,0.0,67,0.00,,,0.00,weatherlink.com 1.10,2013-10-14 22:21:00,
2013-10-14 18:36:00,53.4,43.0,30.29,NE,56,0.0,0.0,69,0.00,,,0.00,weatherlink.com 1.10,2013-10-14 22:36:00,
2013-10-14 18:51:00,53.0,43.0,30.28,NE,49,0.0,0.0,69,0.00,,,0.00,weatherlink.com 1.10,2013-10-14 22:51:00,
2013-10-14 19:06:00,52.4,43.0,30.28,NE,41,0.0,0.0,71,0.00,,,0.00,weatherlink.com 1.10,2013-10-14 23:06:00,
2013-10-14 19:21:00,52.4,43.0,30.28,NE,41,0.0,0.0,70,0.00,,,0.00,weatherlink.com 1.10,2013-10-14 23:21:00,
2013-10-14 19:36:00,52.6,43.0,30.27,ENE,57,0.0,0.0,70,0.00,,,0.00,weatherlink.com 1.10,2013-10-14 23:36:00,
2013-10-14 19:51:00,52.3,43.0,30.27,ENE,72,0.0,0.0,70,0.00,,,0.00,weatherlink.com 1.10,2013-10-14 23:51:00,
2013-10-14 20:06:00,52.1,42.0,30.27,East,87,0.0,0.0,69,0.00,,,0.00,weatherlink.com 1.10,2013-10-15 00:06:00,
2013-10-14 20:21:00,51.7,43.0,30.26,East,89,0.0,0.0,71,0.00,,,0.00,weatherlink.com 1.10,2013-10-15 00:21:00,
2013-10-14 20:36:00,51.4,42.0,30.25,East,95,0.0,0.0,71,0.00,,,0.00,weatherlink.com 1.10,2013-10-15 00:36:00,
2013-10-14 20:51:00,51.0,42.0,30.25,ESE,106,0.0,0.0,72,0.00,,,0.00,weatherlink.com 1.10,2013-10-15 00:51:00,
2013-10-14 21:07:00,49.9,43.0,30.26,ESE,105,0.0,0.0,76,0.00,,,0.00,weatherlink.com 1.10,2013-10-15 01:07:00,
2013-10-14 21:22:00,49.4,43.0,30.26,ESE,105,0.0,0.0,79,0.00,,,0.00,weatherlink.com 1.10,2013-10-15 01:22:00,
2013-10-14 21:37:00,47.6,41.0,30.26,ESE,105,0.0,0.0,79,0.00,,,0.00,weatherlink.com 1.10,2013-10-15 01:37:00,
2013-10-14 21:52:00,47.9,41.0,30.26,SE,127,0.0,0.0,77,0.00,,,0.00,weatherlink.com 1.10,2013-10-15 01:52:00,
2013-10-14 22:07:00,46.9,41.0,30.26,ESE,119,0.0,0.0,79,0.00,,,0.00,weatherlink.com 1.10,2013-10-15 02:07:00,
2013-10-14 22:22:00,46.6,41.0,30.25,SE,133,0.0,0.0,80,0.00,,,0.00,weatherlink.com 1.10,2013-10-15 02:22:00,
2013-10-14 22:37:00,47.2,40.0,30.26,SSE,163,0.0,0.0,77,0.00,,,0.00,weatherlink.com 1.10,2013-10-15 02:37:00,
2013-10-14 22:52:00,47.1,40.0,30.25,SSE,151,0.0,0.0,77,0.00,,,0.00,weatherlink.com 1.10,2013-10-15 02:52:00,
2013-10-14 23:07:00,46.5,40.0,30.25,SSE,154,0.0,0.0,78,0.00,,,0.00,weatherlink.com 1.10,2013-10-15 03:07:00,
2013-10-14 23:22:00,46.1,40.0,30.25,SE,137,0.0,0.0,78,0.00,,,0.00,weatherlink.com 1.10,2013-10-15 03:22:00,
2013-10-14 23:37:00,45.6,39.0,30.24,ESE,113,0.0,0.0,77,0.00,,,0.00,weatherlink.com 1.10,2013-10-15 03:37:00,
2013-10-14 23:52:00,45.5,38.0,30.24,ESE,119,0.0,0.0,76,0.00,,,0.00,weatherlink.com 1.10,2013-10-15 03:52:00,